This is the latest recevied weather packets stored in our database for station/object IR3AS. If no packets are shown the sender has not sent any weather packets the latest 10 day(s).
| Time | Temp. | Humidity | Pressure | Rain* | Wind** | Luminosity | Snow |
|---|---|---|---|---|---|---|---|
| 1777124181 | 14.44° C | 39% | 859.5 hPa | 0 mm | - | - | - |
| 1777123880 | 15° C | 38% | 859.5 hPa | 0 mm | - | - | - |
| 1777123581 | 15.56° C | 37% | 859.5 hPa | 0 mm | - | - | - |
| 1777123281 | 16.67° C | 37% | 859.6 hPa | 0 mm | - | - | - |
| 1777122981 | 17.22° C | 36% | 859.7 hPa | 0 mm | - | - | - |
| 1777122681 | 18.33° C | 36% | 859.4 hPa | 0 mm | - | - | - |
| 1777122380 | 18.33° C | 36% | 859.3 hPa | 0 mm | - | - | - |
| 1777122123 | 17.78° C | 36% | 859.5 hPa | 0 mm | - | - | - |
| 1777122081 | 17.78° C | 36% | 859.5 hPa | 0 mm | - | - | - |
| 1777121781 | 17.22° C | 36% | 859.5 hPa | 0 mm | - | - | - |
| 1777121481 | 17.22° C | 36% | 859.4 hPa | 0 mm | - | - | - |
| 1777121182 | 17.22° C | 37% | 859.5 hPa | 0 mm | - | - | - |
| 1777120880 | 16.67° C | 37% | 859.3 hPa | 0 mm | - | - | - |
| 1777120581 | 16.67° C | 38% | 859.5 hPa | 0 mm | - | - | - |
| 1777120280 | 15.56° C | 39% | 859.4 hPa | 0 mm | - | - | - |
| 1777119980 | 15° C | 39% | 859.2 hPa | 0 mm | - | - | - |
| 1777119681 | 13.89° C | 40% | 859.2 hPa | 0 mm | - | - | - |
| 1777119381 | 12.78° C | 41% | 859.4 hPa | 0 mm | - | - | - |
| 1777119081 | 12.22° C | 41% | 859.4 hPa | 0 mm | - | - | - |
| 1777118781 | 12.22° C | 41% | 859.4 hPa | 0 mm | - | - | - |
| 1777118481 | 12.22° C | 41% | 859.4 hPa | 0 mm | - | - | - |
| 1777118181 | 11.67° C | 41% | 859.4 hPa | 0 mm | - | - | - |
| 1777117881 | 11.67° C | 40% | 859.6 hPa | 0 mm | - | - | - |
| 1777117581 | 12.22° C | 40% | 859.3 hPa | 0 mm | - | - | - |
| 1777117281 | 11.67° C | 40% | 859.4 hPa | 0 mm | - | - | - |
* Rain latest hour (hover to see other rain measurements)
** Current wind speed in m/s (hover to see current wind gust speed)